Location: Étang Rond
(42.7927°N, 1.0661°E)
Time: 00:19:00
(UTC+00:00)

Cosmos 2219 Rocket - Pass Details

Date: 08 November 2025
Orbit: 825 x 847 km, 71.0° (Epoch: 07 December)

Event Time Altitude Azimuth Distance (km) Brightness Sun altitude
Exits shadow 04:37:00 30° 329° (NNW) 1,477 3.2 -22.6°
Drops below altitude 10° 04:40:53 10° 8° (N) 2,474 4.7 -21.9°
Sets 04:43:36 0° 18° (NNE) 3,415 5.5 -21.4°
